"2016-06-11 00:00:00",1712091,7.938,193.7,1.509,0.188,26.04,110.9168,27.25,28.32,17.59,0,111.4,12.99,28.10,155.7
"2016-06-11 00:00:30",1712092,7.733,192.2,0.657,0.111,26.12,110.9128,27.24,28.3,16.94,0,111.4,12.99,28.09,154.2
"2016-06-11 00:01:00",1712093,7.623,191.5,1.129,0.12,26.08,110.9122,27.24,28.29,17.18,0,111.4,12.99,28.09,153.5
"2016-06-11 00:01:30",1712094,7.896,192.7,1.437,0.253,26.03,110.8958,27.2,28.26,17.5,0,111.4,12.99,28.04,154.7
"2016-06-11 00:02:00",1712095,8.11,196.2,1.762,0.239,26.11,110.8843,27.17,28.22,16.95,0,111.4,13,28.01,158.2
"2016-06-11 00:02:30",1712096,8.22,196.8,0.763,0.09,26.06,110.8797,27.16,28.24,16.94,0,111.4,13,28.00,158.8
"2016-06-11 00:03:00",1712097,8.42,196.2,1.218,0.091,26.05,110.8807,27.16,28.2,16.74,0,111.4,13,28.00,158.2
"2016-06-11 00:03:30",1712098,7.888,194.9,2.474,0.375,26.11,110.8726,27.14,28.18,16.78,0,111.4,13,27.98,156.9
"2016-06-11 00:04:00",1712099,8.45,194.9,1.159,0.386,26.19,110.8553,27.09,28.17,16.81,0,111.4,13,27.94,156.9
"2016-06-11 00:04:30",1712100,8.37,192.3,1.389,0.179,26.1,110.8488,27.08,28.14,16.85,0,111.4,13,27.92,154.3
"2016-06-11 00:05:00",1712101,8.48,192.9,1.354,0.261,26.14,110.8513,27.08,28.14,16.57,0,111.4,13,27.93,154.9
"2016-06-11 00:05:30",1712102,8.48,193.3,1.212,0.093,26.15,110.8507,27.08,28.12,16.3,0,111.4,13.01,27.93,155.3
"2016-06-11 00:06:00",1712103,8.26,195.2,0.945,0.098,26.23,110.8506,27.08,28.11,16.08,0,111.4,13.01,27.93,157.2
"2016-06-11 00:06:30",1712104,8.18,196.9,1.114,0.203,26.06,110.8425,27.06,28.09,16.09,0,111.4,13,27.91,158.9
"2016-06-11 00:07:00",1712105,8.26,195.1,1.126,0.109,26.23,110.8389,27.05,28.09,15.89,0,111.4,13.01,27.90,157.1
"2016-06-11 00:07:30",1712106,8.43,193,1.857,0.193,26.17,110.8372,27.05,28.06,15.69,0,111.4,13.01,27.89,155.0
"2016-06-11 00:08:00",1712107,8.24,190.7,0.715,0.116,26.29,110.8374,27.05,28.06,15.72,0,111.4,13.01,27.89,152.7
"2016-06-11 00:08:30",1712108,8.38,190.8,1.321,0.093,26.3,110.8373,27.05,28.06,15.59,0,111.4,13.01,27.89,152.8
"2016-06-11 00:09:00",1712109,8.19,191.3,1.063,0.12,26.27,110.8369,27.05,28.05,15.69,0,111.4,13.01,27.89,153.3
"2016-06-11 00:09:30",1712110,8.41,191,1.753,0.148,26.26,110.8405,27.05,28.06,15.5,0,111.4,13.01,27.90,153.0
"2016-06-11 00:10:00",1712111,8.02,190,1.019,0.181,26.24,110.842,27.06,28.04,15.68,0,111.4,13.01,27.90,152.0
"2016-06-11 00:10:30",1712112,8.09,191.3,1.532,0.304,26.32,110.842,27.06,28.04,15.56,0,111.4,13.01,27.90,153.3
"2016-06-11 00:11:00",1712113,8.12,193.2,1.498,0.239,26.34,110.8448,27.07,28.05,15.2,0,111.4,13.01,27.91,155.2
"2016-06-11 00:11:30",1712114,8.07,192.9,1.825,0.304,26.25,110.8495,27.08,28.04,15.23,0,111.4,13,27.92,154.9
"2016-06-11 00:12:00",1712115,8.05,196.2,2.299,0.161,26.11,110.8634,27.11,28.05,15.2,0,111.4,13.01,27.96,158.2
"2016-06-11 00:12:30",1712116,8.28,196.6,1.615,0.146,26.2,110.8711,27.13,28.05,15.01,0,111.4,13,27.98,158.6
"2016-06-11 00:13:00",1712117,8.5,196.1,1.036,0.113,26.25,110.8725,27.14,28.06,14.85,0,111.4,13,27.98,158.1
"2016-06-11 00:13:30",1712118,8.82,193.5,1.672,0.21,26.37,110.8728,27.14,28.07,14.88,0,111.4,13,27.98,155.5
"2016-06-11 00:14:00",1712119,8.87,191.6,0.806,0.113,26.41,110.8725,27.14,28.08,14.89,0,111.4,13.01,27.98,153.6
"2016-06-11 00:14:30",1712120,8.82,189.8,0.759,0.152,26.47,110.8728,27.14,28.1,14.96,0,111.4,13.01,27.98,151.8
"2016-06-11 00:15:00",1712121,8.66,189.7,1.381,0.112,26.51,110.8769,27.15,28.1,14.76,0,111.4,13.01,28.00,151.7
"2016-06-11 00:15:30",1712122,8.75,190.3,1.004,0.15,26.44,110.8885,27.18,28.11,14.69,0,111.4,13.01,28.02,152.3
"2016-06-11 00:16:00",1712123,8.7,190.5,1.161,0.2,26.41,110.9025,27.21,28.13,14.71,0,111.4,13.01,28.06,152.5
"2016-06-11 00:16:30",1712124,8.57,192,1.068,0.103,26.4,110.9065,27.22,28.14,14.71,0,111.4,13.01,28.07,154.0
"2016-06-11 00:17:00",1712125,8.83,192.9,1.328,0.134,26.3,110.9068,27.23,28.17,14.79,0,111.4,13.01,28.07,154.9
"2016-06-11 00:17:30",1712126,8.65,192.8,0.985,0.093,26.39,110.9077,27.23,28.17,14.83,0,111.4,13.01,28.07,154.8
"2016-06-11 00:18:00",1712127,9.36,189.7,1.85,0.246,26.55,110.9144,27.24,28.19,14.53,0,111.4,13.01,28.09,151.7
"2016-06-11 00:18:30",1712128,9.09,185.6,0.954,0.233,26.54,110.9262,27.28,28.2,14.31,0,111.4,13.01,28.12,147.6
"2016-06-11 00:19:00",1712129,8.8,187.7,2.566,0.276,26.46,110.9399,27.31,28.21,14.34,0,111.4,13.01,28.16,149.7
"2016-06-11 00:19:30",1712130,8.25,189.1,1.643,0.298,26.37,110.9405,27.31,28.24,14.48,0,111.4,13.01,28.16,151.1
"2016-06-11 00:20:00",1712131,8.34,183.7,2.088,0.448,26.35,110.9411,27.31,28.24,14.45,0,111.4,13.01,28.16,145.7
"2016-06-11 00:20:30",1712132,8.52,185.8,1.403,0.193,26.37,110.9492,27.33,28.26,14.47,0,111.4,13.01,28.18,147.8
"2016-06-11 00:21:00",1712133,8.37,188.5,1.067,0.119,26.38,110.9618,27.37,28.27,14.43,0,111.4,13.01,28.21,150.5
"2016-06-11 00:21:30",1712134,8.88,188.1,1.208,0.436,26.46,110.9742,27.4,28.3,14.47,0,111.4,13.01,28.25,150.1
"2016-06-11 00:22:00",1712135,9.54,188.2,2.627,0.216,26.58,110.9745,27.4,28.3,14.47,0,111.4,13.01,28.25,150.2
"2016-06-11 00:22:30",1712136,9.3,192.5,2.208,0.204,26.49,110.9748,27.4,28.34,14.47,0,111.4,13.01,28.25,154.5
"2016-06-11 00:23:00",1712137,9.05,190.2,1.945,0.514,26.48,110.9784,27.41,28.35,14.42,0,111.4,13.01,28.26,152.2
"2016-06-11 00:23:30",1712138,8.64,190.9,1.417,0.286,26.42,110.9868,27.43,28.34,14.43,0,111.4,13.01,28.28,152.9
"2016-06-11 00:24:00",1712139,7.983,189.4,3.367,0.233,26.33,111.0042,27.48,28.38,14.43,0,111.4,13.01,28.32,151.4
"2016-06-11 00:24:30",1712140,8.09,191.3,1.968,0.113,26.31,111.0082,27.49,28.38,14.4,0,111.4,13.01,28.33,153.3
"2016-06-11 00:25:00",1712141,8.24,188.2,0.879,0.18,26.36,111.0082,27.49,28.38,14.32,0,111.4,13.01,28.33,150.2
"2016-06-11 00:25:30",1712142,8.15,186.4,1.887,0.337,26.33,111.0082,27.49,28.41,14.3,0,111.4,13.01,28.33,148.4
"2016-06-11 00:26:00",1712143,9.23,183.9,1.267,0.308,26.32,111.0107,27.49,28.42,14.37,0,111.4,13.01,28.34,145.9
"2016-06-11 00:26:30",1712144,8.91,184.1,1.418,0.26,26.31,111.0174,27.51,28.43,14.33,0,111.4,13.01,28.36,146.1
"2016-06-11 00:27:00",1712145,8.73,185.5,1.073,0.215,26.31,111.0264,27.53,28.44,14.21,0,111.4,13.01,28.38,147.5
"2016-06-11 00:27:30",1712146,8.94,186.1,1.844,0.205,26.28,111.041,27.57,28.47,14.11,0,111.4,13.01,28.42,148.1
"2016-06-11 00:28:00",1712147,9.26,182.7,1.122,0.258,26.15,111.0422,27.57,28.47,14.16,0,111.4,13.01,28.42,144.7
"2016-06-11 00:28:30",1712148,8.93,183.2,1.614,0.229,26.18,111.0419,27.57,28.49,14.16,0,111.4,13.01,28.42,145.2
"2016-06-11 00:29:00",1712149,8.98,181.8,2.679,0.149,26.13,111.043,27.58,28.49,14.08,0,111.4,13.01,28.42,143.8
"2016-06-11 00:29:30",1712150,9,183.9,0.99,0.285,26.09,111.052,27.6,28.51,14.04,0,111.4,13.01,28.45,145.9
"2016-06-11 00:30:00",1712151,8.81,181.6,2.395,0.258,25.93,111.0694,27.64,28.53,14.02,0,111.4,13.01,28.49,143.6
"2016-06-11 00:30:30",1712152,8.96,179.5,1.389,0.203,25.89,111.0753,27.66,28.53,14.02,0,111.4,13.01,28.51,141.5
"2016-06-11 00:31:00",1712153,9.06,181.3,1.858,0.146,25.94,111.0755,27.66,28.55,13.94,0,111.4,13,28.51,143.3
"2016-06-11 00:31:30",1712154,8.94,181.5,1.384,0.192,25.89,111.0831,27.68,28.58,13.84,0,111.4,13,28.53,143.5
"2016-06-11 00:32:00",1712155,8.89,178.5,1.748,0.262,25.88,111.1001,27.72,28.59,13.89,0,111.4,13,28.57,140.5
"2016-06-11 00:32:30",1712156,8.95,181.1,1.333,0.419,25.9,111.1058,27.74,28.62,13.83,0,111.4,13,28.59,143.1
"2016-06-11 00:33:00",1712157,9.01,184.2,1.369,0.218,25.96,111.1064,27.74,28.63,13.8,0,111.4,13,28.59,146.2
"2016-06-11 00:33:30",1712158,8.83,183.9,1.141,0.265,25.89,111.1144,27.76,28.66,13.74,0,111.4,13,28.61,145.9
"2016-06-11 00:34:00",1712159,9.15,181.2,0.948,0.165,25.8,111.1313,27.8,28.67,13.75,0,111.4,13,28.65,143.2
"2016-06-11 00:34:30",1712160,8.57,181.6,2.389,0.454,25.8,111.1283,27.79,28.7,13.73,0,111.4,13,28.64,143.6
"2016-06-11 00:35:00",1712161,7.903,179.4,1.519,0.242,25.73,111.1285,27.8,28.73,13.73,0,111.4,13,28.64,141.4
"2016-06-11 00:35:30",1712162,8.25,182,1.655,0.188,25.81,111.1448,27.84,28.73,13.72,0,111.4,13,28.69,144.0
"2016-06-11 00:36:00",1712163,8.35,177.4,2.276,0.194,25.73,111.152,27.86,28.76,13.69,0,111.4,13,28.70,139.4
"2016-06-11 00:36:30",1712164,8.57,179.4,2.313,0.192,25.69,111.152,27.86,28.78,13.68,0,111.4,13,28.70,141.4
"2016-06-11 00:37:00",1712165,8.74,182.9,0.88,0.204,25.81,111.1506,27.85,28.78,13.57,0,111.4,13,28.70,144.9
"2016-06-11 00:37:30",1712166,8.54,178.7,3.36,0.318,25.67,111.1604,27.88,28.81,13.56,0,111.4,13,28.73,140.7
"2016-06-11 00:38:00",1712167,8.38,181.2,2.253,0.157,25.59,111.1789,27.93,28.83,13.63,0,111.4,13,28.77,143.2
"2016-06-11 00:38:30",1712168,8.54,180.3,1.586,0.203,25.57,111.1822,27.93,28.83,13.57,0,111.4,13,28.78,142.3
"2016-06-11 00:39:00",1712169,8.85,175.6,2.638,0.189,25.67,111.1822,27.93,28.86,13.68,0,111.4,13,28.78,137.6
"2016-06-11 00:39:30",1712170,8.87,178.6,1.068,0.34,25.58,111.1875,27.95,28.88,13.73,0,111.4,13,28.80,140.6
"2016-06-11 00:40:00",1712171,8.54,176.3,1.657,0.245,25.59,111.1965,27.97,28.9,13.67,0,111.4,13,28.82,138.3
"2016-06-11 00:40:30",1712172,8.36,174.6,1.202,0.295,25.59,111.2134,28.01,28.91,13.67,0,111.4,13,28.86,136.6
"2016-06-11 00:41:00",1712173,8.54,174.9,1.209,0.374,25.63,111.2159,28.02,28.92,13.7,0,111.4,13,28.87,136.9
"2016-06-11 00:41:30",1712174,8.69,175.8,1.727,0.206,25.69,111.2159,28.02,28.94,13.65,0,111.4,13,28.87,137.8
"2016-06-11 00:42:00",1712175,8.66,179.8,0.591,0.144,25.6,111.2159,28.02,28.95,13.59,0,111.4,13,28.87,141.8
"2016-06-11 00:42:30",1712176,8.31,178.8,1.519,0.105,25.56,111.219,28.03,28.96,13.6,0,111.4,13,28.88,140.8
"2016-06-11 00:43:00",1712177,8.14,177.9,1.826,0.126,25.57,111.228,28.05,28.98,13.62,0,111.4,13,28.90,139.9
"2016-06-11 00:43:30",1712178,7.893,176.3,1.379,0.382,25.53,111.2431,28.09,28.98,13.6,0,111.4,13,28.94,138.3
"2016-06-11 00:44:00",1712179,8.61,179.7,1.603,0.225,25.54,111.2496,28.11,28.98,13.61,0,111.4,13,28.96,141.7
"2016-06-11 00:44:30",1712180,7.674,179.9,2.157,0.395,25.51,111.2496,28.11,29,13.6,0,111.4,13,28.96,141.9
"2016-06-11 00:45:00",1712181,7.721,178.9,1.771,0.347,25.49,111.2493,28.11,29.01,13.61,0,111.4,13,28.96,140.9
"2016-06-11 00:45:30",1712182,8.41,177.7,1.223,0.182,25.61,111.2493,28.11,29.02,13.56,0,111.4,13,28.96,139.7
"2016-06-11 00:46:00",1712183,8.3,178.3,0.724,0.118,25.54,111.248,28.1,29.02,13.56,0,111.4,13,28.95,140.3
"2016-06-11 00:46:30",1712184,8.58,178.8,1.091,0.18,25.56,111.2466,28.1,29.03,13.61,0,111.4,13,28.95,140.8
"2016-06-11 00:47:00",1712185,8.69,176.9,2.569,0.232,25.65,111.2491,28.11,29.04,13.59,0,111.4,13,28.96,138.9
"2016-06-11 00:47:30",1712186,8.48,178,0.969,0.174,25.59,111.2489,28.11,29.05,13.59,0,111.4,13,28.95,140.0
"2016-06-11 00:48:00",1712187,8.37,179.8,1.87,0.34,25.57,111.2517,28.11,29.05,13.59,0,111.4,13,28.96,141.8
"2016-06-11 00:48:30",1712188,8.19,178,1.258,0.149,25.58,111.2613,28.14,29.06,13.59,0,111.4,12.99,28.99,140.0
"2016-06-11 00:49:00",1712189,8.74,177.8,1.213,0.14,25.67,111.2673,28.15,29.07,13.44,0,111.5,12.99,29.00,139.8
"2016-06-11 00:49:30",1712190,8.26,177.7,1.339,0.143,25.58,111.2692,28.16,29.07,13.45,0,111.5,12.99,29.01,139.7
"2016-06-11 00:50:00",1712191,8.17,177.4,0.98,0.233,25.59,111.2687,28.16,29.07,13.53,0,111.5,12.99,29.01,139.4
"2016-06-11 00:50:30",1712192,7.985,175.4,1.064,0.175,25.63,111.2708,28.16,29.07,13.51,0,111.5,12.99,29.01,137.4
"2016-06-11 00:51:00",1712193,8.11,178,1.221,0.184,25.62,111.2645,28.15,29.07,13.39,0,111.5,12.99,29.00,140.0
"2016-06-11 00:51:30",1712194,7.952,173.8,1.984,0.149,25.63,111.2601,28.13,29.07,13.41,0,111.5,12.98,28.98,135.8
"2016-06-11 00:52:00",1712195,7.625,174.7,0.944,0.171,25.61,111.2589,28.13,29.08,13.48,0,111.5,12.98,28.98,136.7
"2016-06-11 00:52:30",1712196,7.657,176.4,1.532,0.155,25.53,111.2546,28.12,29.06,13.47,0,111.5,12.98,28.97,138.4
"2016-06-11 00:53:00",1712197,7.749,176.5,1.001,0.168,25.55,111.248,28.1,29.07,13.48,0,111.5,12.98,28.95,138.5
"2016-06-11 00:53:30",1712198,7.993,176.8,0.595,0.131,25.64,111.2424,28.09,29.06,13.27,0,111.5,12.98,28.94,138.8
"2016-06-11 00:54:00",1712199,7.903,178.2,0.814,0.146,25.64,111.2402,28.08,29.07,13.19,0,111.5,12.99,28.93,140.2
"2016-06-11 00:54:30",1712200,8.09,177.6,1.361,0.157,25.68,111.2371,28.07,29.06,13.15,0,111.5,12.99,28.92,139.6
"2016-06-11 00:55:00",1712201,7.547,179.2,1.448,0.215,25.66,111.234,28.07,29.07,13.1,0,111.5,12.99,28.92,141.2
"2016-06-11 00:55:30",1712202,7.335,180.3,0.889,0.108,25.58,111.2391,28.08,29.06,13.38,0,111.5,12.99,28.93,142.3
"2016-06-11 00:56:00",1712203,7.694,180.7,1.267,0.281,25.68,111.241,28.08,29.06,13.22,0,111.5,12.99,28.93,142.7
"2016-06-11 00:56:30",1712204,7.281,180.1,1.369,0.209,25.58,111.243,28.09,29.07,13.18,0,111.5,12.99,28.94,142.1
"2016-06-11 00:57:00",1712205,7.689,180.4,1.276,0.34,25.65,111.2458,28.1,29.06,13.25,0,111.5,12.99,28.95,142.4
"2016-06-11 00:57:30",1712206,7.489,181.5,1.628,0.129,25.65,111.2455,28.1,29.05,13.14,0,111.5,12.99,28.95,143.5
"2016-06-11 00:58:00",1712207,7.338,181.5,1.022,0.207,25.64,111.2458,28.1,29.05,13.19,0,111.5,12.99,28.95,143.5
"2016-06-11 00:58:30",1712208,6.864,183,0.955,0.126,25.61,111.2458,28.1,29.06,13.37,0,111.5,12.99,28.95,145.0
"2016-06-11 00:59:00",1712209,7.205,181.7,1.121,0.105,25.63,111.2458,28.1,29.07,13.3,0,111.5,12.99,28.95,143.7
"2016-06-11 00:59:30",1712210,6.984,181.8,0.999,0.131,25.59,111.2458,28.1,29.06,13.35,0,111.5,12.99,28.95,143.8
"2016-06-11 01:00:00",1712211,6.935,181.3,0.74,0.154,25.58,111.2458,28.1,29.06,13.39,0,111.5,12.99,28.95,143.3
"2016-06-11 01:00:30",1712212,6.885,181,0.688,0.065,25.57,111.2458,28.1,29.06,13.48,0,111.5,12.99,28.95,143.0
"2016-06-11 01:01:00",1712213,6.922,181.1,0.56,0.102,25.54,111.2458,28.1,29.07,13.55,0,111.5,12.99,28.95,143.1
"2016-06-11 01:01:30",1712214,6.818,183.2,0.996,0.135,25.68,111.2458,28.1,29.08,13.44,0,111.5,12.99,28.95,145.2
"2016-06-11 01:02:00",1712215,6.837,183.3,0.762,0.114,25.71,111.2458,28.1,29.08,13.39,0,111.5,12.99,28.95,145.3
"2016-06-11 01:02:30",1712216,6.699,183.4,0.529,0.089,25.66,111.2458,28.1,29.07,13.35,0,111.5,12.99,28.95,145.4
"2016-06-11 01:03:00",1712217,6.558,184.6,0.514,0.055,25.6,111.2458,28.1,29.08,13.39,0,111.5,12.99,28.95,146.6
"2016-06-11 01:03:30",1712218,6.412,186.2,0.856,0.063,25.61,111.2458,28.1,29.08,13.43,0,111.5,12.99,28.95,148.2
"2016-06-11 01:04:00",1712219,6.578,187.6,0.632,0.087,25.73,111.2458,28.1,29.08,13.41,0,111.5,12.99,28.95,149.6
"2016-06-11 01:04:30",1712220,6.681,189.1,0.672,0.092,25.75,111.2458,28.1,29.08,13.43,0,111.5,12.99,28.95,151.1
"2016-06-11 01:05:00",1712221,6.65,188.7,0.592,0.075,25.74,111.2458,28.1,29.08,13.44,0,111.5,12.99,28.95,150.7
"2016-06-11 01:05:30",1712222,6.646,191,1.246,0.099,25.76,111.2458,28.1,29.09,13.45,0,111.5,12.99,28.95,153.0
"2016-06-11 01:06:00",1712223,6.745,191.9,0.77,0.058,25.71,111.2466,28.1,29.09,13.43,0,111.5,12.99,28.95,153.9
"2016-06-11 01:06:30",1712224,6.673,189.5,0.592,0.048,25.93,111.2486,28.1,29.08,13.39,0,111.5,12.98,28.95,151.5
"2016-06-11 01:07:00",1712225,6.813,189.2,1.732,0.134,25.85,111.2494,28.11,29.12,13.34,0,111.5,12.98,28.96,151.2
"2016-06-11 01:07:30",1712226,6.943,187.4,0.461,0.12,25.81,111.2517,28.11,29.1,13.21,0,111.5,12.98,28.96,149.4
"2016-06-11 01:08:00",1712227,6.833,186.6,0.952,0.079,25.92,111.2536,28.12,29.1,13.09,0,111.5,12.98,28.97,148.6
"2016-06-11 01:08:30",1712228,6.616,185.9,1.245,0.086,25.87,111.2539,28.12,29.11,13.08,0,111.5,12.98,28.97,147.9
"2016-06-11 01:09:00",1712229,6.546,187.6,0.317,0.048,25.9,111.255,28.12,29.1,13.13,0,111.5,12.98,28.97,149.6
"2016-06-11 01:09:30",1712230,6.628,188.3,0.526,0.083,25.95,111.2553,28.12,29.11,13.1,0,111.5,12.98,28.97,150.3
"2016-06-11 01:10:00",1712231,6.574,187.6,0.464,0.069,25.92,111.2587,28.13,29.1,13.04,0,111.5,12.98,28.98,149.6
"2016-06-11 01:10:30",1712232,6.59,188.1,0.352,0.115,25.88,111.2632,28.14,29.1,13.1,0,111.5,12.98,28.99,150.1
"2016-06-11 01:11:00",1712233,6.638,189.1,0.399,0.055,25.98,111.2688,28.16,29.12,13.03,0,111.5,12.98,29.01,151.1
"2016-06-11 01:11:30",1712234,6.594,188.4,0.627,0.062,25.91,111.2761,28.18,29.12,13.09,0,111.5,12.99,29.03,150.4
"2016-06-11 01:12:00",1712235,6.523,189.5,0.787,0.053,25.88,111.2766,28.18,29.11,13.14,0,111.5,12.99,29.03,151.5
"2016-06-11 01:12:30",1712236,6.402,190.4,0.782,0.064,25.71,111.2792,28.18,29.13,13.16,0,111.5,12.99,29.03,152.4
"2016-06-11 01:13:00",1712237,6.516,190.9,0.61,0.054,25.8,111.2795,28.18,29.12,13.23,0,111.5,12.99,29.03,152.9
"2016-06-11 01:13:30",1712238,6.692,191.9,0.537,0.074,25.74,111.2795,28.18,29.14,13.35,0,111.5,12.99,29.03,153.9
"2016-06-11 01:14:00",1712239,6.722,191.8,0.525,0.034,25.69,111.2795,28.18,29.14,13.44,0,111.5,12.99,29.03,153.8
"2016-06-11 01:14:30",1712240,6.761,192,0.506,0.047,25.64,111.2795,28.18,29.15,13.51,0,111.5,12.99,29.03,154.0
"2016-06-11 01:15:00",1712241,6.787,191.6,0.476,0.045,25.61,111.2795,28.18,29.14,13.57,0,111.5,12.99,29.03,153.6
"2016-06-11 01:15:30",1712242,6.798,190.6,0.64,0.07,25.63,111.2795,28.18,29.16,13.6,0,111.5,12.99,29.03,152.6
"2016-06-11 01:16:00",1712243,6.88,189.1,0.32,0.04,25.67,111.2795,28.18,29.16,13.66,0,111.5,12.99,29.03,151.1
"2016-06-11 01:16:30",1712244,6.967,187.5,0.368,0.055,25.72,111.2795,28.18,29.16,13.71,0,111.5,12.99,29.03,149.5
"2016-06-11 01:17:00",1712245,6.774,189.1,0.933,0.083,25.68,111.2795,28.18,29.15,13.72,0,111.5,12.99,29.03,151.1
"2016-06-11 01:17:30",1712246,6.747,190.4,0.859,0.12,25.58,111.2795,28.18,29.15,13.71,0,111.5,12.99,29.03,152.4
"2016-06-11 01:18:00",1712247,6.692,191.1,1.124,0.048,25.58,111.2792,28.18,29.16,13.7,0,111.5,12.99,29.03,153.1
"2016-06-11 01:18:30",1712248,6.736,191.7,0.639,0.099,25.61,111.2795,28.18,29.15,13.71,0,111.5,12.99,29.03,153.7
"2016-06-11 01:19:00",1712249,6.815,191.7,0.59,0.086,25.62,111.2795,28.18,29.14,13.8,0,111.5,12.99,29.03,153.7
"2016-06-11 01:19:30",1712250,7.134,193.6,0.962,0.15,25.48,111.2792,28.18,29.14,13.84,0,111.5,12.99,29.03,155.6
"2016-06-11 01:20:00",1712251,7.323,194.9,0.712,0.066,25.47,111.2786,28.18,29.15,13.79,0,111.5,12.99,29.03,156.9
"2016-06-11 01:20:30",1712252,7.315,196.6,0.92,0.071,25.47,111.2753,28.17,29.14,13.87,0,111.5,12.99,29.02,158.6
"2016-06-11 01:21:00",1712253,7.22,197.7,0.801,0.07,25.31,111.2637,28.14,29.13,14,0,111.5,12.99,28.99,159.7
"2016-06-11 01:21:30",1712254,7.257,201.4,1.735,0.134,25.32,111.255,28.12,29.12,14.79,0,111.5,12.99,28.97,163.4
"2016-06-11 01:22:00",1712255,7.394,204.5,1.649,0.135,25.36,111.2489,28.1,29.12,15.56,0,111.5,12.99,28.95,166.5
"2016-06-11 01:22:30",1712256,7.39,209.4,3.29,0.246,25.39,111.2455,28.1,29.11,16.53,0,111.5,12.99,28.95,171.4
"2016-06-11 01:23:00",1712257,7.008,212.2,2.236,0.17,25.34,111.2458,28.1,29.1,17.68,0,111.5,12.99,28.95,174.2
"2016-06-11 01:23:30",1712258,7.693,210.2,1.967,0.182,25.33,111.2371,28.07,29.08,18.31,0,111.5,12.98,28.92,172.2
"2016-06-11 01:24:00",1712259,7.31,212,4.077,0.435,25.38,111.2158,28.02,29.07,18.33,0,111.5,12.98,28.87,174.0
"2016-06-11 01:24:30",1712260,7.045,206.3,1.898,0.137,25.53,111.2121,28.01,29.05,16.31,0,111.5,12.98,28.86,168.3
"2016-06-11 01:25:00",1712261,6.547,204.7,1.404,0.269,25.53,111.2006,27.98,29.02,15.73,0,111.5,12.98,28.83,166.7
"2016-06-11 01:25:30",1712262,6.339,204.9,1.7,0.183,25.72,111.1796,27.93,28.99,14.58,0,111.5,12.98,28.78,166.9
"2016-06-11 01:26:00",1712263,7.19,207.3,1.195,0.323,25.6,111.1785,27.92,28.96,14.07,0,111.5,12.98,28.77,169.3
"2016-06-11 01:26:30",1712264,7.73,207.3,0.685,0.115,25.53,111.1737,27.91,28.94,14.32,0,111.5,12.98,28.76,169.3
"2016-06-11 01:27:00",1712265,7.546,208.2,1.038,0.128,25.51,111.1571,27.87,28.91,14.37,0,111.5,12.98,28.72,170.2
"2016-06-11 01:27:30",1712266,8,211.4,1.35,0.227,25.5,111.149,27.85,28.91,14.59,0,111.5,12.98,28.70,173.4
"2016-06-11 01:28:00",1712267,8.29,212.8,0.643,0.14,25.7,111.1448,27.84,28.88,15.23,0,111.5,12.98,28.69,174.8
"2016-06-11 01:28:30",1712268,8.28,213.1,0.934,0.154,25.79,111.1448,27.84,28.87,14.77,0,111.5,12.98,28.69,175.1
"2016-06-11 01:29:00",1712269,8.72,213.3,0.805,0.086,25.55,111.1431,27.83,28.83,14.99,0,111.5,12.99,28.68,175.3
"2016-06-11 01:29:30",1712270,9.05,215.2,1.135,0.271,25.75,111.1265,27.79,28.82,15.39,0,111.5,12.99,28.64,177.2
"2016-06-11 01:30:00",1712271,8.95,215.5,1.226,0.213,25.95,111.1184,27.77,28.81,15,0,111.5,12.99,28.62,177.5
"2016-06-11 01:30:30",1712272,8.55,217.4,1.064,0.157,25.91,111.1117,27.75,28.81,14.8,0,111.5,12.99,28.60,179.4
"2016-06-11 01:31:00",1712273,8.96,220.7,2.048,0.295,26,111.1111,27.75,28.79,14.55,0,111.5,12.99,28.60,182.7
"2016-06-11 01:31:30",1712274,8.29,219.5,2.396,0.135,26.02,111.1111,27.75,28.77,14.39,0,111.5,12.99,28.60,181.5
"2016-06-11 01:32:00",1712275,8,217.8,1.52,0.288,25.99,111.1111,27.75,28.76,14.58,0,111.5,12.99,28.60,179.8
"2016-06-11 01:32:30",1712276,8.53,218.7,1.231,0.209,26,111.1091,27.75,28.75,15.47,0,111.5,12.99,28.59,180.7
"2016-06-11 01:33:00",1712277,8.65,217.2,1.093,0.174,25.98,111.1072,27.74,28.74,15.79,0,111.5,12.99,28.59,179.2
"2016-06-11 01:33:30",1712278,8.97,219.3,1.676,0.125,25.98,111.1044,27.73,28.73,15.85,0,111.5,12.99,28.58,181.3
"2016-06-11 01:34:00",1712279,9,217.4,0.756,0.108,25.99,111.0999,27.72,28.71,15.58,0,111.5,12.99,28.57,179.4
"2016-06-11 01:34:30",1712280,9.05,220.1,2.713,0.13,26.01,111.0965,27.71,28.72,15.69,0,111.5,12.99,28.56,182.1
"2016-06-11 01:35:00",1712281,9.33,222.1,1.542,0.157,26.08,111.0926,27.7,28.71,15.92,0,111.5,12.99,28.55,184.1
"2016-06-11 01:35:30",1712282,9.46,218.6,1.57,0.186,26,111.0887,27.69,28.71,16.08,0,111.5,12.99,28.54,180.6
"2016-06-11 01:36:00",1712283,9.18,216.3,2.61,0.38,25.99,111.0875,27.69,28.71,16.41,0,111.5,12.99,28.54,178.3
"2016-06-11 01:36:30",1712284,9.34,217.7,1.667,0.608,25.97,111.0861,27.69,28.69,16.51,0,111.5,12.99,28.53,179.7
"2016-06-11 01:37:00",1712285,10.09,218.4,1.298,0.224,26.09,111.083,27.68,28.69,16.45,0,111.5,12.99,28.53,180.4
"2016-06-11 01:37:30",1712286,9.6,220.9,1.213,0.233,26.08,111.0814,27.67,28.7,16.46,0,111.5,12.99,28.52,182.9
"2016-06-11 01:38:00",1712287,9.77,220,1.009,0.204,26.08,111.0791,27.67,28.67,16.42,0,111.5,12.99,28.52,182.0
"2016-06-11 01:38:30",1712288,9.74,218.2,1.552,0.296,26.04,111.078,27.67,28.7,16.17,0,111.5,12.99,28.51,180.2
"2016-06-11 01:39:00",1712289,9.64,216.7,1.401,0.381,26.07,111.0774,27.66,28.68,16.17,0,111.5,12.99,28.51,178.7
"2016-06-11 01:39:30",1712290,9.81,216.2,1.599,0.224,26.06,111.0774,27.66,28.68,16,0,111.5,12.99,28.51,178.2
"2016-06-11 01:40:00",1712291,9.94,216.9,1.363,0.175,26.06,111.0774,27.66,28.68,15.98,0,111.5,12.99,28.51,178.9
"2016-06-11 01:40:30",1712292,9.91,216.4,1.862,0.197,26.14,111.0774,27.66,28.67,15.86,0,111.5,12.99,28.51,178.4
"2016-06-11 01:41:00",1712293,9.9,214.4,2.639,0.148,26.07,111.0774,27.66,28.66,15.77,0,111.5,12.99,28.51,176.4
"2016-06-11 01:41:30",1712294,9.9,206.4,2.29,0.42,25.92,111.0774,27.66,28.68,16.69,0,111.5,12.99,28.51,168.4
"2016-06-11 01:42:00",1712295,10.18,207.8,2.505,0.385,25.87,111.0774,27.66,28.67,17.01,0,111.5,12.98,28.51,169.8
"2016-06-11 01:42:30",1712296,10.76,209.2,1.791,0.458,25.91,111.0774,27.66,28.66,16.91,0,111.5,12.98,28.51,171.2
"2016-06-11 01:43:00",1712297,10.68,211.5,2.199,0.353,25.9,111.0774,27.66,28.66,16.59,0,111.5,12.98,28.51,173.5
"2016-06-11 01:43:30",1712298,9.73,209.1,2.777,0.639,25.78,111.0774,27.66,28.67,17.08,0,111.5,12.98,28.51,171.1
"2016-06-11 01:44:00",1712299,9.39,212.7,2.369,0.236,25.74,111.073,27.65,28.64,17.08,0,111.5,12.98,28.50,174.7
"2016-06-11 01:44:30",1712300,9.84,214.4,3.272,0.635,25.74,111.0567,27.61,28.64,17.64,0,111.5,12.98,28.46,176.4
"2016-06-11 01:45:00",1712301,9.75,218.3,2.377,0.311,25.85,111.0454,27.58,28.62,16.85,0,111.5,12.98,28.43,180.3
"2016-06-11 01:45:30",1712302,9.92,218.9,2.18,0.301,25.81,111.0438,27.58,28.6,16.81,0,111.5,12.98,28.43,180.9
"2016-06-11 01:46:00",1712303,10.37,218.4,2.022,0.349,25.89,111.0421,27.57,28.59,16.45,0,111.5,12.99,28.42,180.4
"2016-06-11 01:46:30",1712304,11.48,219.2,1.894,0.418,25.8,111.0266,27.53,28.57,14.23,0,111.5,12.99,28.38,181.2
"2016-06-11 01:47:00",1712305,12.01,216.1,3.269,0.36,25.77,111.0112,27.49,28.54,14.34,0,111.5,12.99,28.34,178.1
"2016-06-11 01:47:30",1712306,12.35,218.4,1.692,0.297,25.94,111.0101,27.49,28.5,13.71,0,111.5,12.99,28.34,180.4